Regional Weather Roundup
Issued by NWS

Home | Current Version | Previous Version | Text Only | Print | Product List | Glossary On
Versions: 1 2 3 4 5 6 7 8 9 10 11 12 13 14 15 16 17 18 19 20 21 22 23 24 25 26 27 28 29 30 31 32 33 34 35 36 37 38 39 40 41 42 43 44 45 46 47 48 49 50
000
ASUS43 KTOP 292159
RWRKS

WEATHER ROUNDUP FOR KANSAS
NATIONAL WEATHER SERVICE GOODLAND KS
500 PM CDT SUN MAR 29 2015

NOTE:  "FAIR" INDICATES FEW OR NO CLOUDS BELOW 12,000 FEET WITH NO
SIGNIFICANT WEATHER AND/OR OBSTRUCTIONS TO VISIBILITY.

KSZ001>006-013>018-027>032-041>047-292300-
NORTHWEST KANSAS

CITY           SKY/WX    TMP DP  RH WIND       PRES   REMARKS
GOODLAND       SUNNY     65  18  16 N15       30.18F
HAYS           SUNNY     70  25  18 N15G28    30.12F
HILL CITY      SUNNY     68  21  16 N21G30    30.14F
RUSSELL        SUNNY     70  23  17 N14G30    30.09S
$$

KSZ061>065-074>080-084>089-292300-
SOUTHWEST KANSAS

CITY           SKY/WX    TMP DP  RH WIND       PRES   REMARKS
DODGE CITY     SUNNY     72  24  16 N18G29    30.14S
ELKHART          N/A     71  23  16 N14         N/A
GARDEN CITY    SUNNY     68  26  20 N17G24    30.15F
GREAT BEND     SUNNY     70  28  21 N20G25    30.10F
LIBERAL        SUNNY     72  27  18 N22       30.17S
$$

KSZ066>073-081>083-090>101-292300-
SOUTHEAST KANSAS

CITY           SKY/WX    TMP DP  RH WIND       PRES   REMARKS
CHANUTE        PTSUNNY   71  38  29 N12       30.01S
COFFEYVILLE    MOSUNNY   63  44  50 SE5       30.02F
HUTCHINSON     SUNNY     73  30  20 N20G26    30.07R
MEDICINE LODGE   N/A     73  32  22 N20G30    30.07F
NEWTON         SUNNY     70  34  26 N20G31    30.07S
PARSONS        MOSUNNY   65  45  48 CALM      30.03F
WICHITA INTL   MOSUNNY   74  34  23 N18G26    30.05R
WICHITA JABRA  MOSUNNY   73  36  25 N18G30    30.04S
WINFIELD         N/A     74  35  24 NW12      30.04F
$$

KSZ007>012-019>026-033>040-048>060-102>105-292300-
NORTHEAST KANSAS

CITY           SKY/WX    TMP DP  RH WIND       PRES   REMARKS
CONCORDIA      SUNNY     67  26  21 N18G26    30.08R
EMPORIA        MOSUNNY   70  37  29 NW21G31   30.02R
LAWRENCE       MOSUNNY   69  40  34 NW26      30.00R
OLATHE IND     MOSUNNY   67  41  38 NW20      30.00S
OLATHE EXE     MOSUNNY   67  41  38 NW17G24   29.99R
SALINA         SUNNY     72  30  21 N17G26    30.06S
TOPEKA BILLARD SUNNY     67  40  37 NW24G32   30.03R
TOPEKA FORBES  SUNNY     70  40  33 NW21G29   30.02R
$$


USA.gov is the U.S. government's official web portal to all federal, state and local government web resources and services.